sat.trackr.live / text

‹ back to catalog

KUIPER-00098

NORAD 65137 · 2025-171F

PAYLOAD ACTIVE UNKNOWN

§ Identity

Operator
Country
US
Launch date
2025-08-11
Launch site
AFETR
Launch vehicle
Mass (kg)
RCS (m²)

External: N2YO · Heavens-Above · Gunter

§ Orbital elements

Epoch: 2026-09-21T13:49:31.146816Z

Period
97.30 min
Inclination
51.9030°
Eccentricity
0.0000513
Mean motion
14.79953134 rev/d
Perigee alt
629.1 km
Apogee alt
629.8 km
Semi-major
7,007.6 km
B*
5.4975e-4
RAAN
16.8851°
Arg perigee
83.1464°
Mean anomaly
276.9557°
Rev number
6,117

§ Raw data

KUIPER-000981 65137U 25171F   26264.57605494  .00003974  00000+0  54975-3 0  99932 65137  51.9030  16.8851 0000513  83.1464 276.9557 14.79953134 61178

JSON: /api/v1/satellites/65137 · /tle

For live sub-satellite position, see the globe view (requires WebGL).

§ Visibility from observer

Set your observer location to see the next 7 days of passes ≥ 10°. The values pass through the URL so the page stays shareable.

No JS? Fill the form by hand. The geolocation button needs JavaScript.